OneWeb SL0152

operational
NORAD ID: 48043 Int'l Des: 2021-025 Owner: ONEWEBN Country: UK Constellation: oneweb
LEOCIRCULARPOLARONEWEB_TYPE

Über OneWeb SL0152

Beschreibung wird geladen...

Live-Position

3D-Globus wird geladen...

Nächste Überflüge

Höhenverlauf

Altitude vs Time

uPlot chart will show altitude changes over time

Zweizeiliger Elementsatz

1 48043U 21025B 25304.73264157 -.00000209 00000-0 -60757-3 0 9999
2 48043 87.9033 5.6293 0001794 103.8914 256.2415 13.13471172223566
Epoch: 31. Okt. 2025 • Age: 27 hours

Aktueller Status

Höhe 1227.1 km
Geschwindigkeit 7.24 km/s
Subsatellitenpunkt -43.26°S, 158.66°W
Startdatum 25. März 2021
Alter 4.6 years
Typ internet

Technische Details

Klassifizierung Payload
Masse 148.00 kg
Trockenmasse 140.00 kg
Gesamtmasse 148.00 kg
Länge 1.30 m
Durchmesser 1.00 m
Spannweite 5.00 m
Form Trapezoid+2 pan
Hersteller ONEWUS
Bus-Typ ARROW
Phasenstatus In Orbit
Besitzer/Staat ONEWEBN/UK

Große Konstellationen

Loading constellations...